Location: Unspecified
(0.0000°N, 0.0000°E)
Time: 21:30:23
(UTC+00:00)

Tiros 1 - Pass Details

Date: 28 October 2021
Orbit: 630 x 664 km, 48.4° (Epoch: 04 December)

Event Time Altitude Azimuth Distance (km) Brightness Sun altitude
Rises 05:26:02 0° 220° (SW) 2,978 10.3 -4.3°
Reaches altitude 10° 05:28:23 10° 220° (SW) 2,069 9.5 -3.8°
Maximum altitude 05:33:10 84° 309° (NW) 666 7.2 -2.6°
Drops below altitude 10° 05:37:57 10° 37° (NE) 2,069 10.1 -1.4°
Sets 05:40:18 0° 38° (NE) 2,979 10.9 -0.9°
